Theta_e
298 298 297 297 297 299 300 299 298 298 298 298 297 296 294 294 294 294 293 293 293 293 292 292 292 293 292 292 293 294 295 296 292 294 294 297 295 295 295 296 296 295 297
294 294 293 294 294 295 294 294 294 293 292 291 291 291 291 290 290 290 289 289 289 288 289 289 289 291 289 290 291 291 292 292 291 288 290 290 291 292 293 293 293 295 295
291 291 290 291 291 290 290 289 289 289 289 289 289 289 288 287 287 287 287 287 287 287 287 287 288 288 286 286 286 288 288 289 288 286 286 288 289 290 290 290 290 291 292
289 289 288 288 288 288 288 288 287 287 287 286 286 285 285 285 286 285 286 286 286 286 286 286 286 286 285 285 286 286 286 286 286 285 285 285 286 287 287 286 286 288 287
289 288 287 286 287 287 286 285 285 285 284 284 284 284 284 285 286 285 285 285 284 284 284 285 285 284 286 287 286 285 285 285 284 283 283 283 283 284 283 285 284 285 285
287 286 286 285 284 284 284 284 284 283 283 283 283 283 283 283 289 290 287 284 283 283 283 283 283 283 284 287 287 287 287 284 283 283 283 282 283 284 284 284 284 283 282
285 284 284 283 283 283 283 283 282 282 282 282 282 282 282 282 288 289 288 284 282 282 282 284 284 284 285 284 286 286 286 287 287 285 282 283 283 284 284 284 284 284 283
283 283 283 283 282 282 282 281 281 281 281 281 280 280 280 282 287 288 287 284 284 284 284 284 284 284 284 284 284 284 284 284 285 285 284 284 285 286 286 285 283 283 283
282 282 281 281 280 280 279 280 280 279 279 279 281 279 278 278 286 287 286 283 284 284 284 284 284 283 285 287 284 283 283 284 287 288 288 289 288 288 287 284 281 280 279
281 281 280 279 277 277 278 277 278 278 280 280 279 277 275 273 283 286 285 281 279 283 284 284 285 284 286 287 284 284 283 283 284 284 284 284 285 284 286 284 282 278 277
279 278 277 277 276 276 275 276 276 278 277 276 275 274 273 275 278 285 286 282 282 283 283 281 282 286 287 287 287 285 284 285 284 282 282 282 283 283 283 282 281 279 276
276 275 273 272 276 275 273 275 274 273 270 268 268 272 275 276 280 282 284 285 286 282 280 281 283 286 287 286 286 287 287 285 282 281 281 280 281 281 282 281 280 278 278
272 270 270 274 274 275 274 272 271 269 268 270 271 270 273 276 275 281 282 284 285 283 282 283 286 286 286 284 285 287 283 281 281 280 279 280 281 281 281 280 271 270 270
273 273 274 273 272 272 274 274 270 267 267 269 270 273 273 274 274 275 278 280 281 281 283 283 284 283 283 283 282 283 282 281 280 279 279 280 281 280 279 277 268 268 265
272 272 272 271 271 271 272 271 271 271 270 266 266 273 272 269 274 282 282 281 282 282 281 278 276 276 276 278 280 280 280 279 279 280 279 279 279 278 278 268 266 264 265
271 270 270 269 269 269 268 267 272 274 276 277 278 275 275 280 281 281 281 281 281 280 271 268 269 270 270 271 272 273 274 276 278 278 277 276 276 274 274 268 265 263 264
268 266 265 265 265 262 261 260 260 265 273 275 276 276 278 278 278 279 279 278 276 271 259 259 263 266 267 267 268 269 269 271 274 276 274 274 273 273 272 271 270 268 266
262 263 263 261 260 258 258 258 257 258 258 260 269 273 276 275 276 275 275 268 258 260 254 255 259 262 264 265 265 265 266 268 270 271 271 271 271 271 271 272 272 270 270
260 259 258 257 256 258 257 256 256 254 254 254 255 265 264 272 273 271 270 254 254 253 252 254 255 259 261 262 264 264 265 266 267 266 267 268 269 269 270 271 272 273 272
256 259 258 257 255 255 255 256 254 253 254 252 253 254 256 258 254 252 251 251 250 251 252 252 255 256 258 261 262 263 263 264 264 264 264 265 267 268 268 269 270 270 271
259 257 258 254 254 254 253 255 254 252 252 252 254 254 271 258 252 251 251 250 251 251 252 252 254 254 255 255 258 260 261 262 262 262 262 262 264 265 267 268 268 269 269
258 257 255 257 255 254 252 252 252 252 252 252 252 252 268 252 251 250 250 250 251 252 255 256 255 254 255 255 255 257 259 260 260 260 260 261 262 263 264 265 266 267 267
258 256 255 252 253 253 252 250 251 251 251 250 250 251 250 250 249 249 250 252 251 252 252 253 255 255 256 258 258 258 259 259 260 260 259 259 260 261 261 262 263 263 264
257 257 256 254 252 251 252 251 250 252 251 251 249 249 250 249 250 252 252 253 252 253 252 252 254 255 254 255 257 259 260 260 260 260 259 259 258 259 259 259 260 261 261
254 255 255 255 253 254 251 251 251 250 250 251 251 249 249 250 251 252 253 252 253 252 253 253 254 254 255 255 255 255 257 261 260 260 259 258 258 258 258 257 256 256 257
253 254 253 252 251 250 250 252 252 252 252 253 253 252 252 253 253 253 253 252 253 254 254 253 253 254 254 254 255 258 260 263 262 261 260 259 258 258 256 256 256 253 254
Wind_Speed
5 6 7 6 6 7 10 7 6 6 6 7 7 7 7 6 6 7 6 6 7 6 5 5 5 5 4 4 4 4 4 5 11 10 6 8 8 8 9 7 8 8 9
5 7 7 7 7 11 9 7 6 8 6 7 7 7 7 7 6 6 6 5 6 5 5 5 5 3 4 4 3 5 5 6 8 17 11 10 12 12 12 13 10 8 9
5 8 7 8 10 9 8 7 6 7 7 7 7 7 6 6 6 6 5 5 5 4 4 5 5 4 4 3 3 5 7 7 9 10 12 8 8 8 11 10 9 10 7
6 8 8 7 8 7 8 7 7 5 7 6 6 6 6 5 6 5 5 5 5 4 4 4 4 4 5 5 6 5 6 8 8 9 11 12 9 9 9 10 12 9 11
8 8 7 6 7 6 8 7 6 6 5 5 6 6 6 5 4 4 5 5 5 5 5 4 4 4 7 7 5 5 6 6 8 10 10 12 12 10 11 10 12 13 12
8 8 6 7 6 6 7 6 6 6 6 6 6 6 6 4 6 6 5 3 4 4 5 4 5 5 7 11 12 14 12 8 10 8 9 10 12 11 11 9 11 12 13
8 6 7 6 6 6 6 6 6 6 5 6 6 5 4 2 7 7 7 4 4 4 4 6 6 5 8 7 11 15 11 15 16 12 13 10 14 12 12 14 12 11 13
7 7 6 6 6 5 6 6 5 4 5 3 2 2 1 3 7 8 7 4 5 5 4 4 4 5 6 8 8 9 9 8 9 8 9 12 13 12 10 10 13 15 12
8 7 5 5 5 5 5 5 4 3 2 2 2 4 4 3 6 7 6 2 5 5 4 5 4 5 10 15 11 10 10 9 8 15 19 22 21 23 19 10 9 10 13
7 6 5 5 5 5 5 4 2 2 2 1 3 2 3 3 6 7 6 1 2 4 3 5 8 8 16 17 10 10 12 10 9 9 7 11 13 13 18 8 7 10 10
6 6 5 4 5 4 4 2 2 3 4 5 3 4 4 2 5 9 10 1 3 3 5 5 4 11 15 18 19 8 8 12 11 9 8 7 7 8 5 3 4 7 8
6 5 5 3 3 3 4 3 3 4 4 3 3 2 2 4 7 8 11 11 10 5 5 5 6 15 19 20 16 13 16 13 7 7 7 7 7 6 6 6 6 8 6
7 6 4 5 3 3 4 4 3 4 3 1 2 2 2 2 2 8 11 12 12 8 5 11 18 19 19 14 18 16 8 4 6 7 8 7 5 7 8 5 5 6 6
8 6 5 5 4 3 3 3 3 2 1 1 1 1 1 2 2 2 3 4 7 7 9 6 11 14 16 14 8 7 3 3 5 7 7 8 7 5 7 3 3 4 3
6 5 5 4 4 3 3 2 1 2 3 2 3 1 1 3 3 11 10 6 6 9 9 4 5 5 6 7 7 5 4 4 5 5 6 7 7 6 7 2 2 3 1
8 5 4 4 3 2 2 1 3 4 2 2 2 2 1 5 10 13 13 13 12 15 3 3 5 5 6 6 7 7 7 9 7 7 5 6 6 7 7 3 2 1 2
6 6 4 4 4 3 2 3 2 4 3 4 4 5 4 6 9 10 11 12 12 9 3 3 3 4 6 6 7 7 8 7 9 7 6 6 6 6 6 5 3 2 2
5 6 5 4 4 3 3 3 3 2 0 3 4 5 4 7 6 8 10 6 4 5 1 2 3 4 4 6 6 7 7 7 6 7 6 6 6 6 6 6 5 3 2
5 4 4 3 3 3 3 3 3 2 3 3 3 4 4 7 4 9 8 3 1 2 2 3 2 4 4 3 5 6 6 7 7 6 6 6 7 7 7 6 6 6 4
3 6 5 4 3 3 3 3 3 3 3 3 3 4 3 2 3 3 2 1 0 2 2 2 3 4 3 4 5 5 5 6 6 6 6 6 6 6 6 7 6 6 5
5 4 6 3 3 4 3 4 3 3 3 3 4 4 7 3 2 2 2 2 3 3 3 3 3 3 3 3 3 4 4 5 4 5 6 6 6 7 7 7 6 6 5
5 5 4 5 4 4 3 3 3 3 3 3 3 3 5 1 1 3 3 4 4 4 3 3 4 4 4 3 2 3 5 5 4 4 5 6 6 6 7 7 6 6 6
6 6 5 4 4 4 3 3 3 3 3 4 3 3 2 2 3 4 4 4 4 4 4 3 4 5 4 4 3 3 5 5 5 5 5 6 6 5 5 6 6 5 4
6 6 6 4 3 3 3 3 3 4 4 3 3 4 3 4 4 5 4 4 4 5 4 4 4 6 5 5 4 4 5 5 5 6 6 5 6 6 5 5 5 5 5
5 5 5 5 4 4 3 3 4 4 4 4 4 3 4 4 4 5 4 4 4 4 5 4 4 6 8 9 7 7 7 11 8 8 5 6 7 7 5 4 3 2 2
5 5 4 4 4 4 4 4 4 4 4 4 4 4 4 5 5 5 4 4 5 5 6 4 6 9 9 8 8 9 10 12 10 9 7 6 6 6 4 5 5 2 3
Wind_Direction
83 89 89 77 74 81 84 81 75 73 70 72 71 74 70 64 54 66 60 45 50 36 26 21 2 359 348 340 339 329 315 304 288 296 302 301 304 300 304 294 295 294 288
92 88 85 83 79 80 81 79 77 85 72 82 81 77 72 64 55 62 63 53 55 41 22 16 355 346 346 339 322 313 307 306 299 298 306 310 310 310 303 303 300 288 290
95 94 82 82 87 90 87 80 76 84 80 72 77 77 73 69 68 59 66 58 51 41 15 358 337 339 329 322 323 323 316 310 305 300 302 304 304 309 308 302 300 294 289
99 96 98 95 96 98 95 87 82 78 83 77 74 85 84 82 68 60 53 44 29 17 1 344 336 339 332 324 322 306 314 311 305 302 303 309 312 316 308 312 310 307 303
105 101 100 95 94 98 91 88 85 79 85 89 85 68 58 55 37 39 37 30 16 354 353 348 339 330 325 328 319 312 309 306 306 305 303 307 310 317 313 309 297 305 303
117 115 108 96 101 99 99 102 95 84 69 66 57 54 45 33 28 30 50 34 21 358 352 357 348 344 337 334 329 322 316 311 303 296 295 294 298 302 302 301 299 302 309
117 111 107 112 109 102 102 91 76 66 65 61 54 50 46 29 33 36 38 43 33 23 5 356 347 339 334 318 320 318 312 304 304 300 293 294 296 299 298 294 292 295 298
119 111 114 120 111 108 98 91 81 75 72 72 55 55 29 17 30 37 39 35 21 357 346 328 314 313 314 315 302 303 292 284 279 277 277 289 288 295 301 305 305 296 288
131 130 136 131 119 109 101 97 81 76 63 45 6 16 18 352 16 27 33 20 356 339 327 303 295 294 293 306 307 296 294 291 282 301 295 297 308 306 300 304 300 298 303
144 136 119 114 116 110 109 107 102 101 80 47 26 8 318 311 333 2 9 253 298 324 299 293 297 305 315 313 306 304 305 313 310 301 300 295 292 288 295 304 325 310 306
120 119 120 120 120 120 123 100 108 96 76 48 25 338 338 5 349 355 346 312 279 312 322 301 269 294 313 313 308 302 292 308 315 307 293 290 285 285 285 283 290 296 295
112 104 92 75 72 85 88 77 75 75 77 44 34 359 351 346 351 353 351 340 327 325 303 297 292 296 312 312 309 293 306 321 307 302 296 294 294 297 298 292 284 287 266
115 119 122 116 103 101 132 115 101 84 89 52 37 9 321 307 304 337 327 330 322 316 296 291 314 313 310 307 297 288 299 292 302 301 302 298 293 299 294 279 291 283 274
140 139 136 122 125 108 92 89 92 99 103 89 52 339 301 306 296 287 291 302 297 305 298 304 309 318 308 298 292 280 255 257 290 295 298 301 299 291 292 302 286 306 306
135 136 136 136 144 133 117 128 136 209 167 174 223 253 330 322 301 328 329 326 321 321 333 320 321 329 332 337 333 313 301 284 280 286 296 304 301 305 304 315 278 302 266
149 155 154 148 137 116 110 72 9 37 21 67 46 44 293 330 343 337 327 337 349 347 354 349 334 333 333 335 330 325 322 320 316 303 294 302 307 307 305 306 273 276 285
144 149 146 136 141 147 134 137 123 335 19 28 9 352 334 5 326 329 334 341 355 31 38 338 321 337 334 327 324 321 317 315 313 318 328 315 313 306 308 304 295 266 283
131 141 151 157 158 164 163 166 149 132 189 306 320 331 18 337 334 0 4 20 7 14 45 324 318 318 319 321 319 318 316 316 326 327 324 324 321 314 313 314 308 289 286
155 158 161 164 171 168 168 158 161 151 187 235 321 328 333 333 3 17 39 110 153 305 313 325 296 302 300 299 311 313 316 317 329 328 329 327 327 325 319 320 319 313 294
170 168 164 168 173 173 168 165 165 177 205 222 231 238 284 69 20 328 2 59 335 252 279 274 288 284 283 301 314 316 319 324 331 329 330 328 327 325 325 324 327 328 319
176 177 170 158 178 194 178 189 188 173 206 221 234 240 285 138 210 215 256 270 247 258 261 256 278 269 271 279 295 307 309 311 323 324 322 324 326 326 328 323 324 324 328
177 176 171 191 183 186 203 193 182 194 209 216 250 275 316 116 203 244 253 253 247 235 234 235 263 256 252 247 248 278 290 293 298 304 311 314 318 321 326 326 330 333 332
183 179 180 192 186 184 193 198 192 203 218 228 238 256 266 253 245 243 248 259 262 261 247 230 246 269 260 255 242 238 275 284 285 286 291 302 305 310 317 316 321 326 334
182 183 190 189 169 182 195 208 212 213 221 235 242 247 244 249 251 251 251 258 264 265 259 246 235 249 260 259 250 246 252 264 266 268 269 275 285 299 303 305 308 312 310
173 179 188 181 182 195 204 217 223 229 231 227 241 240 250 252 258 255 257 255 259 260 262 257 250 254 265 268 267 264 259 275 270 262 258 251 261 271 277 277 284 299 293
175 181 184 169 185 193 203 216 226 227 235 236 236 239 244 253 251 253 256 254 257 260 264 256 255 261 269 269 266 274 275 277 273 253 248 247 251 253 246 258 280 269 276